Torna al catalogo

STARLINK-4426

AttivoComunicazioniSSO
NORAD 53484·PAYLOAD·🇺🇸 United States

Lanciato Aug 12, 2022 da Vandenberg Space Force Base

Loading…

Prossimi Passaggi (prossime 24 ore)

TLE

AggiornatoSource: CelesTrak SupGP

Epoca: Sep 15, 2026, 02:46 UTC

1 53484C 22099V   26258.11576389  .00019555  00000+0  60728-3 0  2587
2 53484  97.2859  15.8857 0000961  94.5304 329.0279 15.33416388    16

Traccia STARLINK-4426 in tempo reale con AllMySat

Download on the App Store